Showing default

OPS 6582 (TRANSIT 5B-5), 965

Orbit data source: Space-Track

OPS 6582 (TRANSIT 5B-5), 965 is a payload satellite owned by USN BuWeps (US) in LEO that was launched on Sun, 13 Dec 1964 UTC via a THOR ABLESTAR launch vehicle from the Air Force Western Test Range (AFWTR). Payload-class satellites include a variety of spacecraft equipped with specific instruments for various scientific and technological missions. These include communications satellites like Starlink; space stations such as the ISS; scientific satellites like the Hubble; Earth observation satellites from companies like Planet Labs, Umbra, and HawkEye 360; GPS; miniature CubeSats for education and research; and military/defense satellites.

Loading next visibility...
Identifier
965, 1964-083D
Orbit
LEO
Country
Flag of USUS
Related business
Manufacturer
NAFI
Mission
Spacecraft
Bus & Motor
TRANSIT 5, Unknown motor
Mass
~54 kg wet, ~54 kg dry
Launch date (UTC)
1964-12-13 (61 years ago)
Launch vehicle
THOR ABLESTAR
Launch site
Air Force Western Test Range (AFWTR)
Object type
Payload
Rocket body
Debris
Shape & HBR
Unknown
Radar Cross Section
Medium (>0.1 m² and <1 m²)

Expand to show TLE details & history
Last TLE update: 11 hours ago

TLE from 11 hours ago
0 OPS 6582 (TRANSIT 5B-5)
1 00965U 64083D   26145.62524264  .00000063  00000-0  75165-4 0  9997
2 00965  90.0781 202.8582 0040916 346.7136 177.0236 13.57010575 40558
Epoch: 2026-05-25T15:00Z
TLE epoch observation values (Epoch: 2026-05-25T15:00:20.964Z)
Latitude
16.21897°
Longitude
-85.4169°
Altitude
1,079.234 km
Speed
7.299 km/s
True Right ascension
01h 31m 31s
True Declination
16° 07' 51"
Sunlit
Object was in daylight at epoch
Visualization orbit readout
Latitude
Unknown
Longitude
Unknown
Altitude
Unknown
Speed
Unknown
Apparent Right ascension
Unknown
Apparent Declination
Unknown
Sunlit
N/A
Visualization observer readout
Local Sidereal Time
11:17:02
Azimuth
Unknown
Elevation
Unknown
Doppler factor
Unknown
Orbital elements
Apogee altitude
1,073.983 km
Perigee altitude
1,013.249 km
Semi-major axis
7,421.753 km
Eccentricity
0.00409
Inclination
90.0781°
RAAN
202.8582°
Arg. of periapsis
346.7136°
True anomaly
177.04782°
Mean anomaly
177.0236°
Eccentric anomaly
177.03572°
Mean motion
3.39456 °/min
Orbital period
106.05 mins
BSTAR
0.000075165
Loading maneuver chart data...
Computing Atmospheric mass density...

Documentation

Showing up to 5 results
|